Weather History for Needles, CA

Change the Weather History Date:

Thursday, March 28, 2013

  Actual Average Record
Temperature  
Mean Temperature 72 °F -  
Max Temperature 88 °F 78 °F 97 °F (1986)
Min Temperature 59 °F 52 °F 37 °F (1975)
Cooling Degree Days 8    
Growing Degree Days 22 (Base 50)    
Moisture  
Dew Point 33 °F    
Average Humidity 23    
Maximum Humidity 41    
Minimum Humidity 13    
Precipitation  
Precipitation 0.00 in - - ()
Sea Level Pressure  
Sea Level Pressure 29.87 in    
Wind  
Wind Speed 4 mph (WSW)    
Max Wind Speed 10 mph    
Max Gust Speed 20 mph    
Visibility 10 miles    
Events      
Averages and records for this station are not official NWS values.
T = Trace of Precipitation, MM = Missing Value Source: NWS Daily Summary

Daily Weather History Graph

Daily Weather History Graph

Search for Another Location

Airport:

Trip Planner

Search our weather history database for the weather conditions in past years. The results will help you decide how hot, cold, wet, or windy it might be!

Date:

Astronomy

Mar. 28, 2013 Rise Set
Actual Time 6:30 AM PDT 6:56 PM PDT
Civil Twilight 6:05 AM PDT 7:22 PM PDT
Nautical Twilight 5:35 AM PDT 7:51 PM PDT
Astronomical Twilight 5:05 AM PDT 8:22 PM PDT
Moon 8:47 PM PDT (3/28) 7:05 AM PDT (3/28)
Length of Visible Light 13h 16m
Length of Day
12h 26m
Full, 98% of the Moon is Illuminated
Mar 28
Full
Apr 2
Last Quarter
Apr 10
New
Apr 18
First Quarter
Apr 25
Full

Hourly Weather History & Observations

Time (PDT) Temp. Dew Point Humidity Pressure Visibility Wind Dir Wind Speed Gust Speed Precip Events Conditions
12:56 AM 70.0 °F 30.9 °F 24% 29.81 in 10.0 mi Calm Calm - N/A   Clear
1:56 AM 66.0 °F 34.0 °F 30% 29.82 in 10.0 mi West 6.9 mph - N/A   Clear
2:56 AM 68.0 °F 34.0 °F 28% 29.82 in 10.0 mi Calm Calm - N/A   Clear
3:56 AM 64.0 °F 32.0 °F 30% 29.83 in 10.0 mi Calm Calm - N/A   Clear
4:56 AM 64.0 °F 33.1 °F 31% 29.84 in 10.0 mi Calm Calm - N/A   Clear
5:56 AM 59.0 °F 34.0 °F 39% 29.86 in 10.0 mi WNW 3.5 mph - N/A   Clear
6:56 AM 60.1 °F 36.0 °F 41% 29.88 in 10.0 mi West 4.6 mph - N/A   Clear
7:56 AM 66.9 °F 37.0 °F 33% 29.91 in 10.0 mi NW 3.5 mph - N/A   Clear
8:56 AM 70.0 °F 36.0 °F 29% 29.92 in 10.0 mi Variable 3.5 mph - N/A   Clear
9:56 AM 75.0 °F 37.0 °F 25% 29.93 in 10.0 mi Calm Calm - N/A   Clear
10:56 AM 78.1 °F 36.0 °F 22% 29.92 in 10.0 mi Variable 3.5 mph - N/A   Clear
11:56 AM 82.0 °F 33.1 °F 17% 29.89 in 10.0 mi SW 8.1 mph - N/A   Clear
12:56 PM 82.9 °F 34.0 °F 17% 29.90 in 10.0 mi SSW 8.1 mph - N/A   Clear
1:56 PM 84.0 °F 34.0 °F 17% 29.88 in 10.0 mi SW 6.9 mph 18.4 mph N/A   Clear
2:56 PM 84.9 °F 30.9 °F 14% 29.85 in 10.0 mi SSW 9.2 mph - N/A   Clear
3:56 PM 84.0 °F 30.0 °F 14% 29.84 in 10.0 mi WNW 9.2 mph 16.1 mph N/A   Clear
4:56 PM 86.0 °F 30.0 °F 13% 29.83 in 10.0 mi NW 10.4 mph 19.6 mph N/A   Clear
5:56 PM 84.9 °F 30.0 °F 14% 29.84 in 10.0 mi SW 8.1 mph - N/A   Clear
6:56 PM 82.9 °F 30.9 °F 15% 29.85 in 10.0 mi SW 9.2 mph - N/A   Clear
7:56 PM 78.1 °F 30.9 °F 18% 29.86 in 10.0 mi West 6.9 mph - N/A   Clear
8:56 PM 77.0 °F 30.9 °F 19% 29.88 in 10.0 mi WSW 8.1 mph - N/A   Clear
9:56 PM 75.0 °F 30.9 °F 20% 29.89 in 10.0 mi WSW 9.2 mph - N/A   Clear
10:56 PM 75.9 °F 33.1 °F 21% 29.89 in 10.0 mi WSW 10.4 mph - N/A   Clear
11:56 PM 73.0 °F 33.1 °F 23% 29.89 in 10.0 mi Calm Calm - N/A   Clear